This is the latest recevied weather packets stored in our database for station/object KI5GCD-13. If no packets are shown the sender has not sent any weather packets the latest 10 day(s).
| Time | Temp. | Humidity | Pressure | Rain* | Wind** | Luminosity | Snow |
|---|---|---|---|---|---|---|---|
| 1777750787 | 20° C | 45% | 1016.1 hPa | 0 mm | 0.45 m/s, 258° | - | - |
| 1777750487 | 19.44° C | 38% | 1016.4 hPa | 0 mm | 1.34 m/s, 344° | - | - |
| 1777750187 | 19.44° C | 40% | 1016.3 hPa | 0 mm | 1.79 m/s, 353° | - | - |
| 1777749887 | 18.89° C | 43% | 1016.3 hPa | 0 mm | 0.89 m/s, 261° | - | - |
| 1777749587 | 18.89° C | 42% | 1016.3 hPa | 0 mm | 0.89 m/s, 289° | - | - |
| 1777749287 | 18.89° C | 43% | 1016.6 hPa | 0 mm | 1.34 m/s, 14° | - | - |
| 1777748987 | 18.89° C | 42% | 1016.6 hPa | 0 mm | 1.34 m/s, 328° | - | - |
| 1777748687 | 18.33° C | 39% | 1016.5 hPa | 0 mm | 1.79 m/s, 19° | - | - |
| 1777748387 | 18.89° C | 41% | 1016.5 hPa | 0 mm | 1.79 m/s, 270° | - | - |
| 1777748087 | 18.89° C | 41% | 1016.6 hPa | 0 mm | 0.89 m/s, 249° | - | - |
| 1777747787 | 17.78° C | 46% | 1016.6 hPa | 0 mm | 0.45 m/s, 275° | - | - |
| 1777747487 | 18.89° C | 40% | 1016.6 hPa | 0 mm | 2.68 m/s, 82° | - | - |
| 1777747187 | 18.89° C | 39% | 1016.6 hPa | 0 mm | 0.45 m/s, 249° | - | - |
| 1777746887 | 18.89° C | 46% | 1016.5 hPa | 0 mm | 0.45 m/s, 239° | - | - |
| 1777746587 | 18.89° C | 40% | 1016.8 hPa | 0 mm | 1.79 m/s, 266° | - | - |
| 1777746287 | 18.89° C | 43% | 1016.8 hPa | 0 mm | 1.34 m/s, 274° | - | - |
| 1777745987 | 18.89° C | 40% | 1016.9 hPa | 0 mm | 0.89 m/s, 265° | - | - |
| 1777745687 | 18.89° C | 44% | 1016.8 hPa | 0 mm | 0.89 m/s, 236° | - | - |
| 1777745387 | 18.33° C | 40% | 1017.2 hPa | 0 mm | 1.34 m/s, 55° | - | - |
| 1777745087 | 17.78° C | 39% | 1017.1 hPa | 0 mm | 0.45 m/s, 248° | - | - |
| 1777744787 | 17.78° C | 46% | 1017.2 hPa | 0 mm | 0.89 m/s, 290° | - | - |
| 1777744487 | 18.33° C | 39% | 1017.2 hPa | 0 mm | 3.13 m/s, 52° | - | - |
| 1777744187 | 18.33° C | 40% | 1017.3 hPa | 0 mm | 1.79 m/s, 1° | - | - |
| 1777743887 | 17.78° C | 41% | 1017.4 hPa | 0 mm | 0.45 m/s, 308° | - | - |
| 1777743587 | 18.33° C | 44% | 1017.4 hPa | 0 mm | 1.79 m/s, 329° | - | - |
* Rain latest hour (hover to see other rain measurements)
** Current wind speed in m/s (hover to see current wind gust speed)